Wind_Speed
22 23 24 24 24 26 26 25 25 23 22 21 20 19 17 14 12 10 13 13 9 3 10 11 13 12 8 4 6 4 5 1 3 2 3 4 5 5 3 6 5 5 2 3 4 4 6 18 13 4 6 3 6 4
22 23 24 25 25 25 25 24 24 25 24 22 21 20 18 17 14 11 7 5 12 4 8 22 27 30 26 26 3 3 4 2 1 2 4 4 3 1 4 3 5 6 6 3 5 5 14 10 3 8 5 7 4 4
22 24 25 25 26 25 25 24 25 26 25 23 22 21 19 18 17 13 16 15 10 3 7 5 9 23 23 33 39 9 4 5 3 4 2 3 5 0 3 5 4 5 4 3 2 1 13 15 9 7 6 9 8 8
23 24 25 26 26 26 26 26 26 28 29 25 23 22 20 20 19 16 18 21 11 3 3 6 10 18 26 22 22 35 21 6 4 3 4 3 4 1 4 2 1 2 4 5 2 5 16 13 12 4 8 11 11 10
24 24 25 26 27 28 30 33 34 34 34 29 26 24 22 21 19 20 25 26 18 5 3 8 21 18 13 10 24 28 20 12 4 3 4 4 3 4 4 3 3 1 2 1 1 8 5 6 6 9 10 9 8 9
24 24 26 28 30 31 35 36 34 35 35 34 30 25 22 18 15 9 3 4 8 11 2 4 5 8 19 16 4 8 13 10 5 4 4 3 3 4 3 2 1 2 3 8 3 11 1 5 15 11 13 14 10 9
24 26 28 31 33 35 38 36 36 39 41 34 30 25 20 15 10 5 5 2 13 13 2 4 4 5 10 6 3 3 4 3 4 4 3 2 2 3 3 2 4 6 7 2 7 6 10 12 7 11 14 11 8 15
26 29 32 33 36 39 40 37 38 43 39 34 26 20 15 13 11 10 14 11 21 4 2 3 4 3 5 4 3 3 2 2 4 1 1 2 2 4 3 6 10 8 5 8 7 6 12 6 13 9 12 9 11 14
29 31 34 36 37 40 40 38 41 42 38 25 20 16 2 5 4 5 7 4 10 3 2 2 2 3 5 3 1 3 3 3 2 1 2 2 2 1 7 14 9 9 4 12 10 7 11 12 9 11 12 14 12 11
32 34 35 38 39 40 39 36 40 37 25 19 8 2 2 3 7 2 3 1 1 2 2 3 2 3 2 2 1 1 3 2 2 2 2 2 2 7 9 6 6 11 12 8 12 8 8 6 7 7 7 8 9 8
33 35 36 38 39 39 34 37 35 31 9 9 5 3 10 9 2 0 2 2 2 3 3 3 6 4 3 3 1 1 2 2 1 1 1 3 4 5 11 8 11 11 12 10 10 8 4 3 6 7 6 4 3 3
33 35 36 37 37 33 31 36 32 23 16 13 14 13 6 3 2 3 2 4 3 3 2 2 3 3 2 2 2 2 0 2 2 1 3 3 6 11 11 10 11 8 6 6 6 2 2 1 2 2 3 4 3 4
32 34 35 34 30 29 36 33 28 19 19 4 1 3 3 3 5 5 5 4 4 2 3 3 2 1 2 2 2 0 3 4 1 4 3 3 7 11 12 11 10 9 9 7 8 6 4 4 8 3 5 5 9 9
31 32 32 27 24 34 35 32 24 17 4 3 4 8 4 6 4 5 11 8 5 4 6 4 1 1 1 1 2 4 4 4 3 4 3 3 6 10 9 6 6 9 9 10 8 8 10 10 11 14 13 16 15 10
30 32 22 16 32 32 28 23 20 7 2 3 5 6 5 6 8 11 11 9 10 3 2 1 3 3 4 4 5 5 4 5 5 4 2 7 9 10 8 9 2 6 10 9 5 8 8 10 9 10 18 19 18 17
29 20 6 24 28 23 18 20 7 4 2 3 3 2 7 6 9 12 12 13 13 11 2 4 4 5 9 4 6 7 4 5 4 4 4 4 8 10 9 9 10 13 13 10 10 14 14 14 15 18 23 22 21 25
19 6 20 24 27 14 12 7 2 1 4 5 4 4 4 3 5 9 10 9 7 11 11 4 7 8 3 5 5 5 4 5 5 6 5 6 7 5 6 12 13 15 11 17 18 23 20 22 24 22 12 17 26 24
7 20 16 20 25 14 10 5 3 4 5 3 4 6 4 3 6 8 11 13 8 8 6 6 4 6 5 5 7 3 4 5 5 4 7 8 8 9 10 9 12 14 15 17 19 24 28 25 17 13 19 17 22 25
18 14 15 19 17 7 4 6 4 3 2 2 4 4 4 3 5 10 10 11 12 7 4 4 7 5 5 3 4 4 3 3 3 4 3 5 2 6 11 11 13 17 19 18 20 17 21 24 19 20 20 23 17 19
7 8 15 14 8 4 5 4 7 4 3 2 3 4 3 3 4 6 10 10 6 5 9 6 6 2 3 4 3 3 4 4 4 4 5 5 10 16 16 19 16 17 17 19 22 24 23 23 26 27 26 25 21 19
5 11 8 8 3 2 1 1 3 2 1 0 2 2 3 4 5 6 8 5 9 9 7 3 3 4 7 13 18 17 11 10 4 3 3 8 16 21 21 22 24 22 18 16 15 20 24 20 23 26 26 21 23 26
4 9 4 3 2 5 2 3 3 2 2 2 2 2 2 3 4 4 3 8 8 5 4 3 4 4 7 9 11 23 21 21 22 17 17 18 10 8 15 18 18 15 19 17 18 17 20 24 28 27 26 20 16 20
6 5 3 2 1 3 6 1 1 2 2 1 3 2 2 2 2 5 4 4 3 5 10 10 15 18 7 16 24 26 28 23 13 14 16 17 18 18 19 21 20 16 14 19 21 21 20 26 28 26 24 25 23 19
2 2 2 2 2 3 2 2 3 2 0 4 4 5 3 3 4 3 2 3 3 8 8 11 14 7 12 12 6 12 19 23 19 22 19 16 14 16 19 20 23 23 21 22 22 22 25 24 24 22 18 21 21 18
3 3 3 5 3 5 4 6 3 3 1 4 4 2 1 2 2 3 2 3 4 4 4 13 13 8 3 4 9 18 25 20 15 11 19 22 18 18 18 22 23 20 21 21 20 20 19 19 20 20 21 23 21 18
4 3 3 3 3 2 3 4 3 3 1 2 3 3 2 2 3 3 2 3 3 3 5 6 3 4 5 12 7 12 17 23 21 17 18 22 20 15 9 5 8 15 16 15 16 16 16 18 20 20 19 21 22 21
3 3 2 1 1 1 4 3 2 4 5 4 2 3 3 3 3 3 3 3 3 17 16 19 16 14 10 15 18 19 22 24 21 18 21 21 22 20 17 14 7 8 10 9 10 12 11 14 15 17 16 18 19 19
3 4 3 2 2 4 1 3 3 4 3 4 3 5 3 2 3 3 4 9 16 18 13 17 17 17 18 18 16 18 19 21 22 19 15 16 18 19 18 17 16 12 15 7 6 10 10 9 13 17 16 15 15 14
3 3 4 3 3 1 1 2 1 0 2 2 3 2 3 2 2 3 5 5 12 13 15 10 13 17 20 21 19 18 17 18 17 7 7 4 7 17 18 18 18 17 20 18 11 17 14 13 13 12 12 11 13 14
3 4 3 4 3 3 3 4 3 3 2 4 4 2 2 1 8 5 3 8 12 12 15 13 12 14 13 17 16 16 14 15 15 10 3 3 7 15 17 17 18 17 18 15 12 12 11 11 11 11 12 14 15 15
6 5 5 3 4 3 5 7 9 5 4 3 4 4 4 3 3 4 10 13 15 15 15 13 13 13 13 11 11 14 8 9 11 12 8 9 9 13 15 14 15 14 14 16 10 11 9 11 13 15 16 15 15 14
1 2 1 2 1 3 5 4 5 5 5 3 3 3 2 2 2 2 5 11 14 13 11 12 12 12 11 11 7 6 8 10 10 10 10 10 9 8 10 11 12 15 18 17 12 15 15 14 13 13 13 12 13 15
2 1 0 3 3 4 4 4 5 4 3 3 3 4 4 4 3 3 7 6 11 10 9 11 10 11 11 10 8 5 4 6 7 6 7 6 5 6 6 8 10 12 14 12 14 14 13 12 12 12 13 14 14 15
Wind_Direction
349 349 346 344 343 344 346 346 347 346 348 343 341 336 333 329 325 320 286 286 236 239 266 233 251 257 268 234 254 293 336 241 313 259 239 203 210 228 242 281 106 110 138 150 221 282 263 353 335 179 170 63 114 80
349 347 346 345 342 341 343 343 345 346 344 339 337 336 332 329 322 312 268 287 296 248 268 278 260 248 238 241 251 230 255 150 243 304 343 314 270 243 196 247 144 161 199 235 191 180 293 292 335 351 5 100 37 67
346 344 343 342 341 343 343 341 341 340 338 335 332 328 323 319 317 311 289 293 290 257 280 266 255 278 257 242 237 240 235 192 200 146 298 288 269 29 201 228 161 189 196 249 52 256 349 347 32 8 40 75 94 86
339 341 342 342 342 342 338 335 335 338 338 325 316 315 314 310 306 303 290 287 272 272 277 277 289 266 279 252 242 215 231 217 160 146 214 243 265 70 281 268 29 296 121 240 268 354 344 347 357 343 39 60 59 56
333 334 335 337 339 337 333 328 326 325 325 326 318 314 308 305 302 297 295 283 257 217 271 290 302 280 293 263 229 222 219 227 205 175 220 261 280 339 244 224 202 256 72 286 31 89 227 346 297 6 36 32 27 55
329 331 331 333 334 336 334 331 329 329 327 322 316 311 306 299 302 315 323 230 201 199 261 294 293 281 299 314 210 208 206 224 203 182 238 221 300 329 291 293 80 346 272 243 175 94 323 57 37 33 55 50 35 64
328 329 330 332 332 334 334 331 330 332 332 325 321 312 299 290 268 213 230 143 178 323 275 280 282 281 339 323 302 58 130 185 178 200 209 210 243 22 271 283 1 292 304 139 172 85 59 36 49 5 28 27 29 59
327 328 328 331 331 334 335 332 334 336 331 329 322 310 291 279 270 255 271 271 244 241 248 283 277 296 9 327 351 349 114 108 21 28 135 185 249 211 261 335 308 292 297 102 87 116 123 112 66 11 52 13 40 45
326 326 327 329 332 333 336 335 339 338 337 333 317 314 225 185 206 248 244 223 156 188 264 238 266 294 356 282 300 17 30 36 323 294 233 179 278 327 310 299 304 287 166 118 104 78 69 72 74 31 37 20 14 20
322 324 327 328 330 332 335 339 342 340 346 335 327 298 311 266 275 181 180 133 160 211 225 250 232 263 221 243 60 146 190 194 242 250 275 44 348 275 298 349 2 44 64 92 103 83 72 69 79 72 63 29 334 338
321 323 326 327 328 331 336 341 343 343 347 343 357 298 315 313 273 312 2 358 281 246 213 230 213 223 232 254 213 211 217 115 295 296 193 42 336 340 13 6 58 58 49 57 63 65 42 121 135 140 102 216 267 330
321 323 325 326 328 330 338 342 348 345 330 310 293 295 288 333 1 24 337 277 262 273 244 263 262 213 226 170 202 240 42 186 31 51 44 24 333 347 14 29 39 33 26 28 37 311 200 156 266 78 185 236 260 288
322 323 324 326 328 331 337 342 343 332 335 310 298 293 32 330 11 344 320 292 271 228 252 252 306 15 322 1 72 286 344 37 290 42 32 315 322 353 10 17 22 1 351 23 28 73 137 164 200 173 97 107 96 77
322 322 324 327 331 333 335 336 336 339 356 7 344 344 29 338 346 291 312 298 261 235 255 247 231 35 276 54 329 26 33 15 51 40 2 296 328 307 326 329 13 21 358 23 9 35 73 79 78 70 69 73 65 49
325 324 326 335 335 330 329 331 335 339 2 6 36 11 347 295 303 320 343 355 352 297 219 136 77 41 14 47 16 7 39 35 14 356 6 23 36 41 28 24 4 36 77 100 31 21 58 55 54 50 45 58 59 57
329 336 346 332 332 335 332 335 351 4 340 19 97 352 308 325 334 353 0 355 345 352 36 45 45 36 38 23 11 22 22 22 356 36 14 353 35 25 17 39 54 52 47 37 39 34 35 57 69 66 54 55 48 53
337 335 336 341 344 341 341 351 335 315 52 17 335 308 311 302 322 357 3 355 330 16 27 48 44 34 5 31 22 356 18 18 23 24 3 347 1 15 11 65 67 61 13 42 44 48 44 43 52 55 46 37 52 46
315 337 348 355 352 355 349 346 18 59 31 347 27 333 338 330 2 3 11 17 17 8 2 43 40 35 54 31 52 23 10 11 17 34 50 45 346 358 41 75 51 52 61 53 54 52 46 43 44 39 36 44 50 44
323 336 351 357 345 352 355 345 51 78 26 349 316 340 13 344 12 22 21 18 24 17 12 33 41 27 18 4 354 340 335 353 353 347 66 150 189 357 54 65 56 52 58 52 52 52 47 40 32 34 31 46 48 36
335 347 352 347 6 16 356 342 358 60 28 295 339 353 15 13 330 13 28 21 360 19 45 50 57 7 25 344 330 319 339 1 46 40 31 9 22 67 62 65 57 64 62 56 51 48 43 34 24 23 39 57 57 46
2 350 341 348 331 3 138 327 344 169 241 356 253 47 347 350 19 29 33 355 47 52 50 29 27 9 16 27 29 35 27 33 19 62 45 51 39 52 45 44 51 50 50 41 41 35 35 28 23 26 35 72 78 75
332 329 329 334 316 355 333 250 175 258 86 247 25 71 25 4 353 1 2 36 39 22 16 14 345 14 33 29 25 38 31 30 35 45 53 66 56 54 51 45 53 51 46 40 45 45 40 35 34 36 37 45 72 75
348 334 300 295 51 39 259 318 17 221 186 82 16 46 20 1 324 13 41 10 11 358 15 18 1 6 17 40 48 44 42 32 19 40 74 68 67 64 60 50 48 54 49 38 47 45 38 38 37 33 34 42 47 57
309 342 346 301 140 258 305 256 233 269 113 56 33 325 19 19 330 76 79 2 307 350 8 357 357 350 360 39 28 30 36 45 34 34 54 80 75 64 61 54 49 57 52 52 56 44 34 26 24 26 34 45 58 76
66 336 80 337 21 7 322 336 328 356 2 93 131 201 262 9 30 56 55 332 328 323 330 352 349 356 25 37 40 38 38 41 62 61 42 60 69 67 55 54 53 57 51 59 51 39 26 20 22 31 47 52 57 70
65 332 61 354 333 58 310 322 309 309 57 95 99 122 124 87 62 24 328 300 297 305 309 311 299 1 19 66 72 47 33 47 72 69 53 60 61 76 72 45 33 41 51 59 43 32 27 29 36 49 56 53 49 45
48 343 329 193 184 300 290 280 316 42 4 18 11 122 88 65 37 304 294 281 268 307 337 2 68 66 84 92 81 68 58 60 64 75 65 55 51 53 58 49 43 43 36 43 37 31 34 27 41 42 55 57 45 39
182 162 196 246 245 222 299 17 32 17 353 326 24 35 69 107 190 239 227 289 301 314 9 84 72 86 101 100 91 80 69 63 56 50 64 56 47 45 42 41 39 32 22 12 29 27 21 38 55 51 61 51 33 29
200 202 156 274 233 282 77 116 108 91 303 38 81 112 166 196 201 241 293 5 67 58 39 55 75 73 92 96 87 81 71 57 53 41 35 12 21 29 29 30 33 31 30 29 71 55 62 64 60 54 48 38 25 25
247 152 191 217 163 159 214 136 145 155 65 124 126 88 66 246 231 250 52 70 76 60 44 57 90 77 79 113 101 87 75 60 54 46 41 360 21 36 34 33 28 24 25 36 65 51 42 42 37 30 40 46 41 31
139 190 192 188 181 156 155 136 139 142 150 180 177 141 174 196 187 102 92 105 88 69 49 49 75 70 79 67 115 131 109 73 59 52 44 39 39 39 33 24 24 20 16 14 46 30 20 26 48 49 43 38 29 20
131 206 140 132 136 146 116 150 168 184 182 165 172 131 146 96 196 224 105 109 92 76 61 87 90 82 78 65 75 114 124 123 86 68 62 60 55 37 20 15 24 23 19 33 48 54 55 47 42 39 31 21 10 5
318 359 53 107 111 178 208 154 199 178 160 153 138 175 178 158 165 159 80 109 119 107 95 99 97 103 83 68 60 165 162 139 121 95 70 50 24 12 5 14 27 28 24 29 38 39 37 36 38 20 11 3 0 357
Height
845 841 837 832 827 823 817 812 807 802 797 793 789 785 781 778 776 775 771 770 770 765 753 752 752 751 749 749 747 738 735 731 733 724 714 706 706 692 685 672 667 679 683 677 672 673 661 616 600 606 609 609 607 607
844 839 834 830 825 820 815 810 805 800 795 791 787 783 780 776 773 771 768 766 765 762 747 744 741 739 738 734 741 738 731 732 731 728 717 712 691 686 688 679 664 678 675 669 662 671 650 634 623 616 610 611 616 614
842 837 833 828 822 818 812 807 802 796 792 788 785 780 776 772 769 768 764 762 761 755 742 735 727 721 722 722 721 734 725 723 726 727 729 719 696 683 683 677 663 663 663 660 654 646 651 641 625 621 617 615 614 614
840 835 830 825 820 814 808 803 798 793 788 783 778 774 770 767 764 762 760 757 758 753 745 724 717 713 709 709 711 712 712 713 714 719 723 721 705 684 678 669 669 660 662 658 654 646 649 644 638 632 625 620 620 619
837 832 827 822 817 811 805 798 792 786 780 776 772 769 765 761 758 755 751 746 748 752 742 723 711 698 698 695 696 699 704 709 711 718 713 706 692 687 674 669 667 660 659 657 657 655 663 655 646 637 631 630 629 628
833 829 823 818 813 807 800 791 784 778 773 769 766 762 759 756 753 753 748 742 740 743 741 731 711 696 690 687 687 690 692 695 702 703 701 694 692 690 680 665 661 662 659 656 653 648 659 654 647 644 639 638 641 636
830 825 819 814 807 802 794 785 779 773 767 762 759 754 750 749 750 751 746 740 740 740 738 726 721 699 690 686 682 682 684 688 689 696 694 693 692 696 683 666 664 660 656 649 653 649 659 658 661 657 651 647 646 640
827 821 815 810 802 796 789 780 775 767 758 753 748 742 741 742 742 739 731 730 734 739 736 729 715 703 697 694 689 685 684 687 692 691 692 692 692 688 671 664 661 655 653 654 655 656 657 661 657 662 655 663 655 647
823 818 811 804 798 790 784 776 770 760 752 745 738 735 734 736 736 731 729 728 730 735 731 726 717 708 699 693 693 691 692 695 695 693 690 692 676 676 671 666 658 650 649 654 657 656 653 660 667 664 659 659 662 659
819 813 807 800 793 786 779 775 766 756 750 741 736 734 735 732 729 728 729 730 731 730 728 722 715 708 706 693 694 696 692 693 695 691 685 686 681 677 668 660 658 653 654 658 660 666 668 672 673 674 675 668 674 671
815 809 803 796 788 781 776 771 763 754 750 744 742 739 733 729 730 728 729 731 726 722 719 711 706 702 694 691 691 689 687 690 692 684 681 684 685 674 668 662 658 661 662 666 668 670 673 674 675 674 671 679 680 677
810 804 798 792 784 778 775 769 762 756 754 750 749 742 736 733 732 733 742 733 727 715 704 702 692 689 690 690 692 684 683 684 679 679 687 693 687 678 675 672 671 671 671 670 670 675 675 673 675 674 679 678 678 677
805 799 793 787 780 775 771 766 760 755 751 747 746 743 741 738 736 738 732 725 716 707 700 693 689 690 689 687 686 688 684 683 682 692 706 704 692 684 683 679 678 676 673 674 672 672 671 672 675 676 678 680 679 677
799 794 788 782 778 772 767 762 757 754 753 754 752 750 748 744 737 730 719 710 703 699 692 689 689 690 689 687 689 682 690 692 695 703 710 703 701 695 693 688 686 687 682 682 683 677 677 678 679 681 681 681 680 679
794 788 783 779 775 769 765 761 758 755 756 757 757 767 758 750 738 722 708 700 693 688 687 686 688 689 693 695 703 702 703 712 716 707 706 704 702 698 694 692 691 692 693 693 690 687 686 687 687 686 687 686 685 685
790 783 782 779 773 767 763 760 757 757 756 757 760 763 753 747 737 724 717 709 698 688 686 691 697 702 711 718 717 721 721 721 717 716 716 712 710 706 703 702 701 699 699 698 697 697 696 695 694 695 693 693 693 689
788 786 782 778 771 766 764 762 761 762 763 767 770 765 759 757 751 740 730 722 709 696 696 702 713 723 729 734 734 732 728 727 724 721 719 716 716 717 714 709 710 709 708 708 706 705 705 704 700 700 701 700 698 698
788 785 783 779 773 767 764 764 763 766 772 776 777 771 764 759 756 747 737 727 720 718 717 721 726 732 740 745 742 739 737 734 731 729 730 726 718 718 718 717 716 716 716 715 715 715 712 711 711 712 711 710 707 706
788 785 783 781 777 775 774 769 769 776 778 778 776 770 767 764 760 755 748 742 738 735 732 737 745 754 755 752 750 746 741 739 738 735 735 732 729 727 725 725 723 722 722 723 722 723 723 722 722 720 718 716 717 716
788 786 784 781 780 779 778 778 773 778 782 781 777 774 773 772 768 763 759 755 751 749 751 760 765 767 764 760 755 750 746 742 740 741 738 734 732 730 732 733 734 735 734 733 732 731 730 729 727 726 724 723 723 724
788 787 784 783 782 781 781 783 782 781 781 782 778 778 780 775 773 772 769 767 763 764 770 773 771 767 763 760 755 751 750 748 749 748 749 748 744 741 741 742 741 742 743 743 743 742 740 741 739 737 735 735 734 733
789 787 785 784 783 782 782 779 782 780 782 782 781 782 785 785 784 781 778 775 776 780 777 777 775 772 768 766 764 761 759 755 752 752 751 751 753 754 754 755 753 754 754 753 752 752 752 751 748 746 746 745 742 741
789 788 786 784 785 792 788 779 782 779 781 784 785 784 787 789 787 783 792 792 791 787 783 780 777 774 773 771 768 766 764 762 761 760 761 763 764 764 763 762 761 761 761 761 759 759 759 757 755 753 752 748 747 747
789 788 788 787 788 792 781 780 777 776 773 783 790 790 790 792 790 794 798 799 798 791 787 784 781 779 776 775 775 773 771 768 768 767 767 767 769 772 770 769 768 767 767 767 766 765 763 762 761 758 757 755 754 754
794 793 793 801 791 790 783 782 778 779 781 785 792 795 794 794 794 797 800 805 799 796 791 787 784 782 783 782 781 780 778 775 773 776 776 774 775 775 774 773 773 772 772 770 770 768 767 765 763 761 760 758 758 757
801 795 798 795 797 796 791 788 782 778 777 778 784 792 793 794 797 808 810 807 803 798 794 790 788 787 787 786 787 786 786 782 778 780 782 780 779 778 778 776 776 775 774 773 772 771 769 767 766 764 764 763 762 760
804 797 796 794 796 795 793 786 781 784 784 783 783 784 790 799 810 812 806 802 800 796 793 790 789 789 790 791 791 790 789 787 787 788 786 784 783 782 781 780 779 778 776 774 773 772 770 769 768 767 767 766 765 764
795 798 798 793 794 791 786 787 789 793 792 789 788 796 799 803 811 808 804 799 797 795 795 793 793 791 791 792 793 792 791 790 790 790 789 788 787 785 784 783 781 780 778 776 775 773 772 770 769 769 769 768 767 766
790 788 791 790 788 784 785 788 791 792 791 791 796 801 804 803 801 801 800 799 797 796 796 795 795 794 794 794 794 794 794 793 792 792 792 792 790 788 786 784 783 781 779 777 777 776 774 773 773 772 771 770 769 768
782 780 786 781 781 784 784 784 788 789 789 791 794 799 801 800 798 798 799 798 798 798 797 796 796 795 795 795 797 797 797 796 794 794 793 793 792 790 788 787 785 783 782 780 779 778 777 776 774 773 772 771 770 769
768 771 775 774 776 777 778 780 783 786 789 791 791 795 798 797 797 798 798 798 798 798 798 798 798 797 796 796 796 797 798 798 797 795 794 793 792 791 790 788 787 785 783 782 780 779 778 777 776 775 774 773 771 770
766 767 770 773 777 776 777 781 784 785 786 789 790 792 794 796 799 797 798 797 797 798 799 798 798 798 798 797 796 796 796 797 797 797 796 794 793 792 791 789 787 786 784 782 781 781 780 779 778 777 775 774 772 770
765 765 764 768 775 776 776 779 781 783 782 783 787 788 790 793 795 797 798 797 797 798 798 798 798 798 798 797 797 796 796 796 796 796 795 794 793 792 791 790 789 787 786 785 783 782 781 780 779 777 776 774 772 770